HS6TUX-4 Weather Reports


time (UTC)temp
C
wind
direction
speed
KPH
gust
KPH
rain 1hr
cm
rain 24hr
cm
rain mn
cm
humidity
%
barometer
mb
20260505152605 30 0 0.0 0.0 0.00 0.00 0.00 99 727.0
20260505151037 30 0 0.0 0.0 0.00 0.00 0.00 99 728.0
20260505123555 32 0 0.0 0.0 0.00 0.00 0.00 99 730.0
20260505122027 32 0 0.0 0.0 0.00 0.00 0.00 99 731.0
20260505120458 33 0 0.0 0.0 0.00 0.00 0.00 99 731.0
20260505114930 33 0 0.0 0.0 0.00 0.00 0.00 99 731.0
20260505113401 33 0 0.0 0.0 0.00 0.00 0.00 99 732.0
20260505111832 34 0 0.0 0.0 0.00 0.00 0.00 96 733.0
20260505110304 35 0 0.0 0.0 0.00 0.00 0.00 92 733.0
20260505101640 36 0 0.0 0.0 0.00 0.00 0.00 85 734.0
20260505100111 36 0 0.0 0.0 0.00 0.00 0.00 88 735.0
20260505094543 37 0 0.0 0.0 0.00 0.00 0.00 88 736.0
20260505093015 38 0 0.0 0.0 0.00 0.00 0.00 86 737.0
20260505091447 37 0 0.0 0.0 0.00 0.00 0.00 88 735.0
20260505085919 38 0 0.0 0.0 0.00 0.00 0.00 86 737.0
20260505084351 39 0 0.0 0.0 0.00 0.00 0.00 82 738.0
20260505082823 37 0 0.0 0.0 0.00 0.00 0.00 85 736.0
20260505081255 39 0 0.0 0.0 0.00 0.00 0.00 83 738.0
20260505075726 39 0 0.0 0.0 0.00 0.00 0.00 84 738.0
20260505074158 40 0 0.0 0.0 0.00 0.00 0.00 85 739.0
20260505072630 38 0 0.0 0.0 0.00 0.00 0.00 93 738.0
20260505071102 38 0 0.0 0.0 0.00 0.00 0.00 97 737.0
20260505065534 38 0 0.0 0.0 0.00 0.00 0.00 97 738.0
20260505064006 36 0 0.0 0.0 0.00 0.00 0.00 99 735.0
20260505062438 37 0 0.0 0.0 0.00 0.00 0.00 99 736.0
20260505060910 36 0 0.0 0.0 0.00 0.00 0.00 99 735.0
20260505055342 34 0 0.0 0.0 0.00 0.00 0.00 99 732.0
20260505053814 38 0 0.0 0.0 0.00 0.00 0.00 99 737.0
20260505052245 36 0 0.0 0.0 0.00 0.00 0.00 99 735.0
20260505050717 35 0 0.0 0.0 0.00 0.00 0.00 99 734.0
20260505040525 36 0 0.0 0.0 0.00 0.00 0.00 99 735.0
20260505034957 35 0 0.0 0.0 0.00 0.00 0.00 99 734.0
20260505033429 36 0 0.0 0.0 0.00 0.00 0.00 99 734.0
20260505031901 38 0 0.0 0.0 0.00 0.00 0.00 99 737.0
20260505030333 41 0 0.0 0.0 0.00 0.00 0.00 99 740.0
20260505024805 39 0 0.0 0.0 0.00 0.00 0.00 99 739.0
20260505023236 37 0 0.0 0.0 0.00 0.00 0.00 99 736.0
20260505021708 31 0 0.0 0.0 0.00 0.00 0.00 99 729.0
20260505014439 28 0 0.0 0.0 0.00 0.00 0.00 99 726.0
20260505012911 30 0 0.0 0.0 0.00 0.00 0.00 99 728.0
20260505011341 28 0 0.0 0.0 0.00 0.00 0.00 99 725.0
20260505005813 26 0 0.0 0.0 0.00 0.00 0.00 99 724.0
20260505004245 26 0 0.0 0.0 0.00 0.00 0.00 99 723.0
20260505002717 26 0 0.0 0.0 0.00 0.00 0.00 99 723.0
20260505001149 25 0 0.0 0.0 0.00 0.00 0.00 99 722.0
20260504235621 26 0 0.0 0.0 0.00 0.00 0.00 99 723.0
20260504234052 25 0 0.0 0.0 0.00 0.00 0.00 99 723.0
20260504232524 25 0 0.0 0.0 0.00 0.00 0.00 99 722.0
20260504230956 24 0 0.0 0.0 0.00 0.00 0.00 99 721.0
20260504225427 24 0 0.0 0.0 0.00 0.00 0.00 99 721.0
20260504223859 24 0 0.0 0.0 0.00 0.00 0.00 99 721.0
20260504222331 23 0 0.0 0.0 0.00 0.00 0.00 99 721.0
20260504220803 23 0 0.0 0.0 0.00 0.00 0.00 99 721.0
20260504215234 23 0 0.0 0.0 0.00 0.00 0.00 99 721.0
20260504213706 23 0 0.0 0.0 0.00 0.00 0.00 99 721.0
20260504212138 24 0 0.0 0.0 0.00 0.00 0.00 99 721.0
20260504210610 25 0 0.0 0.0 0.00 0.00 0.00 99 721.0
20260504205042 25 0 0.0 0.0 0.00 0.00 0.00 99 722.0
20260504203513 25 0 0.0 0.0 0.00 0.00 0.00 99 722.0
20260504201944 25 0 0.0 0.0 0.00 0.00 0.00 99 721.0
20260504200416 24 0 0.0 0.0 0.00 0.00 0.00 99 721.0
20260504194848 24 0 0.0 0.0 0.00 0.00 0.00 99 721.0
20260504193320 24 0 0.0 0.0 0.00 0.00 0.00 99 721.0
20260504191752 24 0 0.0 0.0 0.00 0.00 0.00 99 721.0
20260504190224 24 0 0.0 0.0 0.00 0.00 0.00 99 721.0
20260504184656 23 0 0.0 0.0 0.00 0.00 0.00 99 720.0
20260504183128 24 0 0.0 0.0 0.00 0.00 0.00 99 721.0
20260504181600 25 0 0.0 0.0 0.00 0.00 0.00 99 722.0
20260504180031 26 0 0.0 0.0 0.00 0.00 0.00 99 723.0
20260504174503 26 0 0.0 0.0 0.00 0.00 0.00 99 723.0
20260504172935 26 0 0.0 0.0 0.00 0.00 0.00 99 723.0
20260504171407 26 0 0.0 0.0 0.00 0.00 0.00 99 723.0